Home > Time Zones > World Clock > Weather > Oman > Seeb > Past weeks

Flag for Oman Weather past 2 weeks in Seeb, Oman

Now
88 °F

Clear.


Feels Like: 100 °F
Forecast: 80 / 89 °F
Wind: 2 mph from Northeast

Location: International Airport

Current Time: Aug 22, 2014 at 4:09:40 AM

Latest Report: Aug 22, 2014 at 2:50 AM


Visibility: 5 mi

Pressure: 29.53 "Hg

Humidity: 70%

Dew point: 77 °F

Location of SeebLocation

Historic Weather in Seeb — Graph

°F

Seeb temperature yesterday

Maximum temperature yesterday: 93 °F (at 9:50 AM)
Minimum temperature yesterday: 86 °F (at 5:50 AM)
Average temperature yesterday: 89 °F

Past Weeks' High & Low Weather Summary

 TemperatureHumidityPressure
High95 °F (Aug 12, 9:50 AM)94% (Aug 17, 4:50 AM)29.80 "Hg (Aug 17, 4:50 AM)
Low81 °F (Aug 13, 5:50 AM)53% (Aug 11, 4:50 PM)29.39 "Hg (Aug 7, 4:50 PM)
Average87 °F78%29.55 "Hg
* Reported Aug 7 2:50 AM — Aug 22 2:50 AM, Seeb, Weather by CustomWeather, © 2014

Note: Actual official high and low records may vary slightly from our data, if they occured in-between our weather recording intervals... More about our weather records

Advertising

Seeb weather history for previous 24 hours

 ConditionsComfort  
Time TempWeatherWind HumidityBarometerVisibility
2:50 AM
Aug 22
88 °FClear.2 mph70%29.53 "Hg5 mi
1:50 AM88 °FClear.2 mph75%29.53 "Hg5 mi
12:50 AM88 °FClear.2 mph75%29.56 "Hg5 mi
11:50 PM
Aug 21
86 °FClear.2 mph84%29.56 "Hg4 mi
10:50 PM88 °FClear.2 mph79%29.56 "Hg5 mi
9:50 PM88 °FClear.2 mph79%29.56 "Hg5 mi
8:50 PM88 °FClear.3 mph79%29.56 "Hg5 mi
7:50 PM88 °FClear.7 mph79%29.56 "Hg5 mi
6:50 PM90 °FClear.6 mph75%29.53 "Hg5 mi
5:50 PM90 °FClear.7 mph71%29.53 "Hg5 mi
4:50 PM91 °FClear.12 mph71%29.56 "Hg5 mi
3:50 PM90 °FClear.12 mph75%29.56 "Hg5 mi
2:50 PM91 °FPassing clouds.14 mph75%29.56 "Hg5 mi
1:50 PM91 °FPassing clouds.14 mph75%29.59 "Hg5 mi
12:50 PM91 °FPassing clouds.16 mph80%29.59 "Hg5 mi
11:50 AM90 °FClear.14 mph84%29.62 "Hg5 mi
10:50 AM91 °FClear.12 mph75%29.65 "Hg5 mi
9:50 AM93 °FClear.7 mph67%29.65 "Hg5 mi
8:50 AM91 °FClear.3 mph71%29.65 "Hg5 mi
7:50 AM90 °FClear.2 mph79%29.65 "Hg5 mi
6:50 AM88 °FClear.5 mph84%29.65 "Hg5 mi
5:50 AM86 °FClear.3 mph89%29.62 "Hg5 mi
4:50 AM88 °FClear.5 mph79%29.62 "Hg5 mi
Weather by CustomWeather, © 2014

See weather overviewHow to use our weather pages